Miscellaneous Local Product
Issued by NWS Hastings, NE

Home | Current Version | Previous Version | Graphics & Text | Print | Product List | Glossary On
Versions: 1 2 3 4 5 6 7 8 9 10 11 12 13 14 15 16 17 18 19 20 21 22 23 24 25 26 27 28 29 30 31 32 33 34 35 36 37 38 39 40 41 42 43 44 45 46 47 48 49 50
256
AXUS43 KGID 091802
MISGRI

GID CWA HOURLY WEATHER ROUNDUP
NATIONAL WEATHER SERVICE HASTINGS NE
1200 PM CST TUE FEB 09 2016

NOTE: "FAIR" INDICATES FEW OR NO CLOUDS BELOW 12,000 FEET WITH NO
SIGNIFICANT WEATHER AND/OR OBSTRUCTIONS TO VISIBILITY.

...SOUTH CENTRAL NEBRASKA...

CITY           SKY/WX    TMP DP  RH WIND       PRES   REMARKS
GRAND ISLAND   CLOUDY    24  11  57 N20       30.33R WCI  10
HASTINGS       CLOUDY    26  10  50 N18       30.32R WCI  13
ORD            CLOUDY    25  10  53 N13       30.31S WCI  14
YORK           SUNNY     25  10  54 N14G23    30.30R WCI  13
AURORA         CLOUDY    25  11  54 N22       30.31R WCI  11
LEXINGTON      CLOUDY    30  18  60 N13       30.31S WCI  20
HOLDREGE       CLOUDY    29  17  59 N10       30.31R WCI  20
HEBRON         SUNNY     25  12  57 N20G26    30.32R WCI  11

...NEBRASKA PANHANDLE...

CITY           SKY/WX    TMP DP  RH WIND       PRES   REMARKS
CHADRON        CLOUDY    44  31  60 W15G24    30.24S
ALLIANCE       CLOUDY    36  31  82 W12       30.24R WCI  28
SCOTTSBLUFF    SUNNY     46  29  51 NW15      30.27S
SIDNEY         PTSUNNY   41  30  65 NW15      30.28R

...WESTERN AND NORTH CENTRAL NEBRASKA...

CITY           SKY/WX    TMP DP  RH WIND       PRES   REMARKS
VALENTINE      CLOUDY    25  10  53 SE3       30.27F
AINSWORTH      CLOUDY    26   8  48 E5        30.28S WCI  20
ONEILL         CLOUDY    26  10  51 N9        30.30S WCI  16
BROKEN BOW     CLOUDY    27  13  55 N9        30.29S WCI  18
IMPERIAL       CLOUDY    38  26  62 NE3       30.28R
NORTH PLATTE   CLOUDY    33  20  58 SW3       30.27F
MCCOOK         CLOUDY    34  21  59 W6        30.31R WCI  29

...EASTERN NEBRASKA...

CITY           SKY/WX    TMP DP  RH WIND       PRES   REMARKS
NORFOLK        SUNNY     23  10  57 N20       30.27S WCI   8
SO SIOUX CITY  SUNNY     18   5  57 NW17      30.28S WCI   3
TEKAMAH        SUNNY     23   5  46 N21       30.29R WCI   8
COLUMBUS       SUNNY     21   3  45 N17       30.31R WCI   7
ALBION         MOSUNNY   24   8  50 N17G24    30.30R WCI  11
OMAHA EPPLEY   MOSUNNY   18   6  59 N21G31    30.28S WCI   1
OFFUTT AFB     MOSUNNY   19   4  51 NW15      30.27S WCI   5
MILLARD        SUNNY     18   5  56 NW17G23   30.30R WCI   3
LINCOLN        SUNNY     22   8  55 N18G29    30.32R WCI   7
NEBRASKA CITY  SUNNY     20   6  55 N21G29    30.27R WCI   4
BEATRICE       SUNNY     24   8  50 N24G30    30.30F WCI   8
FALLS CITY     SUNNY     23   6  48 NW22G32   30.26R WCI   8

...NORTHERN KANSAS...

CITY           SKY/WX    TMP DP  RH WIND       PRES   REMARKS
GOODLAND       SUNNY     41  27  57 N9        30.29S
HILL CITY      CLOUDY    37  20  50 N10       30.33R WCI  30
NORTON         CLOUDY    34  18  51 N8        30.31S WCI  27
PHILLIPSBURG   CLOUDY    34  19  55 N14       30.34R WCI  24
SMITH CENTER   CLOUDY    30  19  64 N15       30.34R WCI  19
BELOIT         CLOUDY    30  16  55 N20G26    30.33R WCI  18
HAYS           CLOUDY    39  18  41 N17G23    30.32R WCI  30
RUSSELL        CLOUDY    35  19  52 N20       30.31R WCI  24
CONCORDIA      SUNNY     29   9  43 N24G35    30.32R WCI  15
SALINA         SUNNY     37  11  34 N24       30.32R WCI  26
TOPEKA         SUNNY     30   2  30 NW24G36   30.25S WCI  16



USA.gov is the U.S. government's official web portal to all federal, state and local government web resources and services.